Date,TemperatureHighF,TemperatureAvgF,TemperatureLowF,DewpointHighF,DewpointAvgF,DewpointLowF,HumidityHigh,HumidityAvg,HumidityLow,PressureMaxIn,PressureMinIn,WindSpeedMaxMPH,WindSpeedAvgMPH,GustSpeedMaxMPH,PrecipitationSumIn
2019-1-2,27.5,24.9,22.3,19.7,17.6,16.2,77,74,72,30.18,30.13,12,8,9,0.00
2019-1-3,47.2,34.2,21.4,26.7,20.2,15.3,79,62,37,30.15,29.95,20,9,20,0.00
2019-1-4,50.1,38.3,26.7,36.1,26.8,20.0,80,70,54,29.98,29.89,16,8,16,0.00
2019-1-5,61.0,46.7,32.3,37.2,30.3,25.3,80,66,30,30.05,29.97,14,7,12,0.00
2019-1-6,49.0,42.3,35.7,38.0,33.1,30.2,85,76,64,30.00,29.57,21,10,21,0.00
2019-1-7,49.9,43.1,36.4,34.7,30.2,25.6,84,61,46,29.93,29.58,29,15,28,0.00
2019-1-8,44.7,35.2,25.8,29.1,22.3,16.2,76,56,33,30.55,29.93,36,17,36,0.00
2019-1-9,35.5,28.0,20.6,17.9,15.2,11.8,76,60,42,30.64,30.48,15,9,15,0.00
2019-1-12,24.0,24.0,23.9,20.9,20.5,20.3,88,87,86,30.47,30.45,13,10,15,0.00
2019-1-13,29.4,26.6,23.9,25.4,23.7,20.9,92,88,84,30.56,30.44,15,6,20,0.00
2019-1-14,32.4,29.3,26.2,30.6,27.5,24.1,95,93,88,30.44,30.27,20,11,20,0.00
2019-1-15,36.5,30.5,24.6,32.3,27.3,22.9,95,91,81,30.28,30.10,20,9,20,0.00
2019-1-16,28.2,26.5,24.9,25.9,24.3,23.1,94,93,89,30.27,30.15,24,11,24,0.00
2019-1-17,25.3,25.2,25.1,23.5,23.5,23.4,93,93,93,30.19,30.18,2,1,5,0.00
2019-1-22,35.6,18.0,17.3,15.2,14.3,13.3,89,86,83,30.18,30.15,32,22,32,0.00
2019-1-23,37.1,22.5,8.0,27.9,18.2,4.9,89,80,65,30.19,29.98,32,10,32,0.00
2019-1-24,30.8,19.5,8.3,24.6,9.6,-2.4,83,65,38,30.42,30.06,35,16,35,0.00
2019-1-25,39.7,24.1,8.5,23.0,16.2,-0.6,77,65,49,30.38,30.17,27,13,27,0.00
2019-1-26,45.4,32.1,18.8,29.1,23.1,13.6,82,70,49,30.20,30.05,31,12,31,0.00
2019-1-27,52.5,39.5,26.8,35.5,30.1,22.1,87,71,49,30.17,29.57,39,13,39,0.00
2019-1-28,43.7,30.8,17.9,32.2,15.0,2.0,67,56,39,30.30,29.72,56,27,56,0.00
2019-1-29,23.6,13.3,3.0,13.4,3.6,-8.1,69,56,37,30.43,30.20,33,15,33,0.00
2019-1-30,12.2,4.2,-3.6,-1.8,-6.5,-12.7,68,60,52,30.46,30.27,23,13,23,0.00
2019-1-31,36.6,21.8,6.9,18.1,9.0,-2.7,68,60,45,30.28,30.08,26,12,26,0.00
2019-2-1,54.6,37.2,19.8,31.6,22.7,13.9,79,58,29,30.16,30.03,27,10,27,0.00
2019-2-2,55.4,46.5,37.7,47.4,41.2,31.5,95,89,74,30.04,29.69,25,12,25,0.00
2019-2-3,50.5,45.0,39.4,48.0,44.4,37.8,96,93,88,29.70,29.58,18,8,18,0.00
2019-2-6,40.3,9.9,6.3,7.0,4.2,-0.5,77,73,63,30.24,29.72,27,18,27,0.00
2019-2-7,12.0,6.2,0.8,-0.3,-5.2,-9.1,74,61,49,30.64,30.16,38,23,38,0.00
2019-2-8,23.0,8.4,-6.1,6.8,-2.8,-13.7,70,59,42,30.83,30.64,23,12,23,0.00
2019-2-9,37.9,25.4,13.0,17.2,11.8,5.7,74,58,41,30.68,30.23,43,21,43,0.00
2019-2-10,37.5,32.2,27.2,24.0,21.2,14.9,84,70,52,30.24,30.09,26,12,26,0.00
2019-2-11,28.4,26.2,24.1,26.5,24.1,21.6,93,91,83,30.10,29.84,27,14,27,0.00
2019-2-12,35.5,25.9,16.2,26.1,18.9,11.1,91,79,67,30.25,30.02,20,13,20,0.00
2019-2-13,21.7,16.0,10.4,15.2,10.1,5.2,82,78,74,30.60,30.17,24,13,28,0.00
2019-2-14,28.3,21.5,14.7,18.5,14.7,10.8,86,78,55,30.17,29.80,24,9,33,0.00
2019-2-15,25.1,19.9,14.6,13.5,10.5,7.2,73,67,61,30.03,29.92,12,7,13,0.00
2019-2-20,16.5,13.6,10.8,8.7,7.2,3.5,76,72,70,30.49,30.03,7,4,7,0.00
2019-2-21,27.2,14.1,1.3,19.8,7.9,-4.7,84,76,71,30.29,30.06,27,8,27,0.00
2019-2-22,31.3,26.2,21.3,27.8,20.9,15.0,93,78,71,30.29,30.01,26,14,26,0.00
2019-2-23,29.7,26.6,23.5,28.2,24.7,16.7,94,91,70,30.07,29.71,43,18,43,0.01
2019-2-24,25.5,13.7,2.0,16.9,7.8,-3.2,80,71,65,30.53,30.07,29,13,29,0.00
2019-2-25,7.2,1.6,-3.9,1.0,-2.8,-8.4,83,78,73,30.56,30.46,26,15,26,0.00
2019-2-26,8.7,4.8,0.9,4.8,0.5,-3.8,85,81,77,30.54,30.37,26,13,26,0.00
2019-2-27,11.5,6.7,2.1,4.4,0.8,-3.3,84,76,68,30.60,30.43,29,15,29,0.00
2019-2-28,18.8,10.6,2.5,9.7,4.9,-2.5,82,74,65,30.45,30.23,13,4,13,0.00
2019-3-1,31.0,19.8,8.6,24.8,14.4,4.3,87,80,74,30.40,30.12,29,12,29,0.00
2019-3-2,18.7,12.6,6.5,14.4,9.9,2.4,86,83,79,30.57,30.38,30,18,30,0.00
2019-3-3,6.5,-0.9,-8.2,2.6,-6.4,-14.5,84,74,63,30.72,30.54,33,18,33,0.00
2019-3-4,12.4,-0.3,-13.0,2.2,-7.6,-19.3,74,69,61,30.66,30.48,24,14,24,0.00
2019-3-5,20.9,10.8,0.8,10.5,2.1,-7.1,73,67,61,30.65,30.47,27,14,27,0.00
2019-3-7,28.9,25.2,21.6,25.4,22.4,19.0,91,89,87,30.09,30.06,16,8,16,0.00
2019-3-8,32.7,27.3,21.9,31.4,25.5,19.5,95,93,90,30.08,29.69,30,10,27,0.00
2019-3-9,36.7,34.6,32.5,32.8,31.7,30.1,95,88,80,29.70,29.52,43,29,43,0.02
2019-3-12,52.0,45.2,38.4,50.5,44.1,34.2,97,95,83,30.10,29.64,38,13,38,0.05
2019-3-13,54.1,51.8,49.6,49.0,48.2,47.4,96,89,81,29.64,28.94,24,15,24,0.15
2019-3-14,48.7,34.1,31.4,30.2,28.0,24.1,91,76,66,30.23,28.97,59,36,59,0.43
2019-3-15,43.5,36.0,28.5,25.6,23.1,15.7,78,64,34,30.44,30.23,45,20,45,0.00